| time (UTC) | temp C | wind direction | speed KPH | gust KPH | rain 1hr cm | rain 24hr cm | rain mn cm | humidity % | barometer mb |
| 20260504210117 | 26 | 270 | 1.6 | 3.2 | 0.00 | 0.00 | 0.00 | 21 | 1014.5 |
| 20260504205117 | 26 | 68 | 1.6 | 3.2 | 0.00 | 0.00 | 0.00 | 23 | 1014.5 |
| 20260504204117 | 26 | 315 | 3.2 | 4.8 | 0.00 | 0.00 | 0.00 | 19 | 1014.7 |
| 20260504203117 | 26 | 0.0 | 1.6 | 0.00 | 0.00 | 0.00 | 23 | 1014.6 | |
| 20260504202117 | 26 | 293 | 1.6 | 4.8 | 0.00 | 0.00 | 0.00 | 21 | 1014.8 |
| 20260504201117 | 26 | 180 | 1.6 | 6.4 | 0.00 | 0.00 | 0.00 | 25 | 1015.0 |
| 20260504200117 | 26 | 180 | 1.6 | 6.4 | 0.00 | 0.00 | 0.00 | 22 | 1015.1 |
| 20260504195117 | 27 | 293 | 4.8 | 11.3 | 0.00 | 0.00 | 0.00 | 21 | 1015.1 |
| 20260504194116 | 26 | 0.0 | 1.6 | 0.00 | 0.00 | 0.00 | 26 | 1015.1 | |
| 20260504193116 | 26 | 113 | 1.6 | 6.4 | 0.00 | 0.00 | 0.00 | 28 | 1015.1 |
| 20260504192116 | 26 | 0.0 | 1.6 | 0.00 | 0.00 | 0.00 | 23 | 1015.3 | |
| 20260504191116 | 26 | 293 | 1.6 | 6.4 | 0.00 | 0.00 | 0.00 | 24 | 1015.4 |
| 20260504190116 | 26 | 0.0 | 4.8 | 0.00 | 0.00 | 0.00 | 26 | 1015.6 | |
| 20260504185137 | 26 | 0.0 | 1.6 | 0.00 | 0.00 | 0.00 | 29 | 1015.8 | |
| 20260504184136 | 25 | 0.0 | 0.0 | 0.00 | 0.00 | 0.00 | 24 | 1015.8 | |
| 20260504183117 | 25 | 0.0 | 3.2 | 0.00 | 0.00 | 0.00 | 27 | 1015.8 | |
| 20260504182116 | 25 | 0.0 | 3.2 | 0.00 | 0.00 | 0.00 | 32 | 1016.0 | |
| 20260504181136 | 25 | 0.0 | 0.0 | 0.00 | 0.00 | 0.00 | 24 | 1016.0 | |
| 20260504180116 | 25 | 315 | 3.2 | 12.9 | 0.00 | 0.00 | 0.00 | 24 | 1016.1 |
| 20260504175116 | 25 | 315 | 1.6 | 4.8 | 0.00 | 0.00 | 0.00 | 27 | 1016.2 |
| 20260504174116 | 25 | 0.0 | 1.6 | 0.00 | 0.00 | 0.00 | 33 | 1016.4 | |
| 20260504173116 | 25 | 293 | 3.2 | 8.0 | 0.00 | 0.00 | 0.00 | 29 | 1016.4 |
| 20260504172136 | 23 | 338 | 1.6 | 3.2 | 0.00 | 0.00 | 0.00 | 30 | 1016.7 |
| 20260504171117 | 24 | 315 | 4.8 | 11.3 | 0.00 | 0.00 | 0.00 | 29 | 1017.0 |
| 20260504170116 | 23 | 315 | 4.8 | 8.0 | 0.00 | 0.00 | 0.00 | 27 | 1016.9 |
| 20260504160116 | 22 | 68 | 1.6 | 8.0 | 0.00 | 0.00 | 0.00 | 33 | 1017.7 |
| 20260504151136 | 21 | 293 | 1.6 | 6.4 | 0.00 | 0.00 | 0.00 | 43 | 1017.9 |
| 20260504150116 | 20 | 338 | 1.6 | 4.8 | 0.00 | 0.00 | 0.00 | 41 | 1018.0 |
| 20260504141116 | 18 | 0.0 | 1.6 | 0.00 | 0.03 | 0.00 | 51 | 1018.2 | |
| 20260504140116 | 17 | 315 | 1.6 | 3.2 | 0.00 | 0.03 | 0.00 | 50 | 1018.2 |
| 20260504130116 | 15 | 0.0 | 1.6 | 0.00 | 0.03 | 0.00 | 62 | 1018.4 | |
| 20260504120115 | 11 | 0.0 | 0.0 | 0.00 | 0.03 | 0.00 | 77 | 1018.5 | |
| 20260504110137 | 9 | 0.0 | 0.0 | 0.00 | 0.03 | 0.00 | 76 | 1018.5 | |
| 20260504100117 | 10 | 0.0 | 0.0 | 0.00 | 0.03 | 0.00 | 73 | 1018.3 | |
| 20260504090137 | 10 | 0.0 | 0.0 | 0.00 | 0.03 | 0.00 | 69 | 1018.2 | |
| 20260504081117 | 10 | 0.0 | 0.0 | 0.00 | 0.03 | 0.00 | 67 | 1018.3 | |
| 20260504080117 | 11 | 0.0 | 0.0 | 0.00 | 0.03 | 0.00 | 66 | 1018.2 | |
| 20260504070116 | 11 | 0.0 | 0.0 | 0.00 | 0.03 | 0.00 | 59 | 1018.2 | |
| 20260504060136 | 11 | 113 | 1.6 | 6.4 | 0.00 | 0.03 | 0.00 | 51 | 1018.2 |
| 20260504050116 | 10 | 0.0 | 0.0 | 0.00 | 0.03 | 0.00 | 48 | 1018.4 | |
| 20260504045156 | 9 | 0.0 | 0.0 | 0.00 | 0.03 | 0.00 | 50 | 1018.5 | |
| 20260504044116 | 8 | 0.0 | 0.0 | 0.00 | 0.03 | 0.00 | 53 | 1018.4 | |
| 20260504043117 | 8 | 0.0 | 0.0 | 0.00 | 0.03 | 0.00 | 53 | 1018.5 | |
| 20260504042136 | 8 | 0.0 | 0.0 | 0.00 | 0.03 | 0.00 | 56 | 1018.5 | |
| 20260504041116 | 8 | 0.0 | 0.0 | 0.00 | 0.03 | 0.00 | 58 | 1018.5 | |
| 20260504040116 | 8 | 0.0 | 0.0 | 0.00 | 0.03 | 0.00 | 57 | 1018.5 | |
| 20260504035115 | 8 | 0.0 | 0.0 | 0.00 | 0.03 | 0.03 | 59 | 1018.5 | |
| 20260504034117 | 8 | 0.0 | 0.0 | 0.00 | 0.03 | 0.03 | 58 | 1018.5 | |
| 20260504033117 | 8 | 0.0 | 0.0 | 0.00 | 0.03 | 0.03 | 58 | 1018.4 | |
| 20260504032118 | 8 | 0.0 | 0.0 | 0.00 | 0.03 | 0.03 | 58 | 1018.3 | |
| 20260504031117 | 8 | 0.0 | 0.0 | 0.00 | 0.03 | 0.03 | 58 | 1018.3 | |
| 20260504030117 | 8 | 0.0 | 0.0 | 0.00 | 0.03 | 0.03 | 58 | 1018.2 | |
| 20260504025117 | 8 | 0.0 | 0.0 | 0.00 | 0.03 | 0.03 | 57 | 1018.2 | |
| 20260504024117 | 8 | 0.0 | 0.0 | 0.00 | 0.03 | 0.03 | 56 | 1018.2 | |
| 20260504023117 | 8 | 0.0 | 0.0 | 0.00 | 0.03 | 0.03 | 56 | 1018.2 | |
| 20260504022117 | 9 | 0.0 | 0.0 | 0.00 | 0.03 | 0.03 | 55 | 1018.3 | |
| 20260504021117 | 9 | 0.0 | 0.0 | 0.00 | 0.03 | 0.03 | 54 | 1018.2 | |
| 20260504020117 | 10 | 0.0 | 0.0 | 0.00 | 0.03 | 0.03 | 53 | 1018.1 | |
| 20260504015117 | 10 | 0.0 | 0.0 | 0.00 | 0.03 | 0.03 | 52 | 1018.1 | |
| 20260504014117 | 10 | 0.0 | 0.0 | 0.00 | 0.03 | 0.03 | 51 | 1018.1 | |
| 20260504013117 | 10 | 0.0 | 0.0 | 0.00 | 0.03 | 0.03 | 51 | 1018.0 | |
| 20260504012117 | 11 | 0.0 | 0.0 | 0.00 | 0.03 | 0.03 | 50 | 1017.9 | |
| 20260504011117 | 11 | 0.0 | 0.0 | 0.00 | 0.03 | 0.03 | 48 | 1017.8 | |
| 20260504010117 | 12 | 0.0 | 0.0 | 0.00 | 0.03 | 0.03 | 48 | 1017.6 | |
| 20260504005137 | 12 | 0.0 | 0.0 | 0.00 | 0.03 | 0.03 | 46 | 1017.5 | |
| 20260504004117 | 13 | 0.0 | 0.0 | 0.00 | 0.03 | 0.03 | 45 | 1017.4 | |
| 20260504003117 | 14 | 0.0 | 0.0 | 0.00 | 0.03 | 0.03 | 43 | 1017.2 | |
| 20260504002117 | 14 | 0.0 | 0.0 | 0.00 | 0.03 | 0.03 | 41 | 1017.1 | |
| 20260504001117 | 15 | 0.0 | 0.0 | 0.00 | 0.03 | 0.03 | 37 | 1017.0 | |
| 20260504000137 | 16 | 0.0 | 0.0 | 0.00 | 0.03 | 0.03 | 33 | 1016.9 | |
| 20260503235157 | 16 | 0.0 | 0.0 | 0.00 | 0.03 | 0.03 | 30 | 1017.1 | |
| 20260503234117 | 17 | 0.0 | 0.0 | 0.00 | 0.03 | 0.03 | 27 | 1017.0 | |
| 20260503233117 | 17 | 0.0 | 0.0 | 0.00 | 0.03 | 0.03 | 26 | 1016.9 | |
| 20260503232137 | 17 | 0.0 | 0.0 | 0.00 | 0.03 | 0.03 | 26 | 1016.9 | |
| 20260503231117 | 17 | 0.0 | 1.6 | 0.00 | 0.03 | 0.03 | 24 | 1017.0 | |
| 20260503230117 | 18 | 293 | 1.6 | 4.8 | 0.00 | 0.03 | 0.03 | 23 | 1017.0 |
| 20260503225117 | 18 | 0.0 | 1.6 | 0.00 | 0.03 | 0.03 | 24 | 1017.1 | |
| 20260503224117 | 18 | 0.0 | 1.6 | 0.00 | 0.03 | 0.03 | 23 | 1017.1 | |
| 20260503223157 | 18 | 293 | 1.6 | 6.4 | 0.00 | 0.03 | 0.03 | 23 | 1017.1 |
| 20260503222116 | 18 | 0.0 | 0.0 | 0.00 | 0.03 | 0.03 | 24 | 1017.1 | |
| 20260503221137 | 18 | 0.0 | 0.0 | 0.00 | 0.03 | 0.03 | 23 | 1017.0 | |
| 20260503220116 | 18 | 270 | 1.6 | 6.4 | 0.00 | 0.03 | 0.03 | 23 | 1016.9 |
| 20260503215116 | 19 | 0.0 | 0.0 | 0.00 | 0.03 | 0.03 | 23 | 1017.0 | |
| 20260503214116 | 19 | 315 | 1.6 | 4.8 | 0.00 | 0.03 | 0.03 | 20 | 1017.0 |
| 20260503213116 | 19 | 315 | 1.6 | 6.4 | 0.00 | 0.03 | 0.03 | 21 | 1017.1 |
| 20260503212116 | 19 | 0.0 | 1.6 | 0.00 | 0.03 | 0.03 | 22 | 1017.1 | |
| 20260503211116 | 19 | 23 | 1.6 | 8.0 | 0.00 | 0.03 | 0.03 | 21 | 1017.2 |